Weather History for Wright-Patt AFB, OH

Change the Weather History Date:

Monday, October 1, 2012

  Actual Average Record
Temperature  
Mean Temperature 56 °F -  
Max Temperature 65 °F 68 °F 82 °F (2002)
Min Temperature 48 °F 45 °F 37 °F (1998)
Degree Days  
Heating Degree Days 9    
Growing Degree Days 6 (Base 50)    
Moisture  
Dew Point 48 °F    
Average Humidity 76    
Maximum Humidity 94    
Minimum Humidity 44    
Precipitation  
Precipitation 0.85 in - - ()
Sea Level Pressure  
Sea Level Pressure 29.81 in    
Wind  
Wind Speed 7 mph (NE)    
Max Wind Speed 15 mph    
Max Gust Speed -    
Visibility 8 miles    
Events Rain    
Averages and records for this station are not official NWS values.
T = Trace of Precipitation, MM = Missing Value Source: NWS Daily Summary

Daily Weather History Graph

Daily Weather History Graph

Search for Another Location

Airport:

Trip Planner

Search our weather history database for the weather conditions in past years. The results will help you decide how hot, cold, wet, or windy it might be!

Date:

Astronomy

Oct. 01, 2012 Rise Set
Actual Time 7:32 AM EDT 7:17 PM EDT
Civil Twilight 7:05 AM EDT 7:44 PM EDT
Nautical Twilight 6:34 AM EDT 8:15 PM EDT
Astronomical Twilight 6:03 AM EDT 8:47 PM EDT
Moon 7:54 PM EDT (10/1) 9:01 AM EDT (10/1)
Length of Visible Light 12h 38m
Length of Day
11h 44m
Full, 98% of the Moon is Illuminated
Oct 1
Full
Oct 8
Last Quarter
Oct 15
New
Oct 21
First Quarter
Oct 29
Full

Hourly Weather History & Observations

Time (EDT) Temp. Dew Point Humidity Pressure Visibility Wind Dir Wind Speed Gust Speed Precip Events Conditions
12:55 AM 51.1 °F 42.3 °F 72% 29.93 in 10.0 mi NNE 4.6 mph - N/A   Mostly Cloudy
1:55 AM 52.2 °F 42.8 °F 70% 29.93 in 10.0 mi Calm Calm - N/A   Mostly Cloudy
2:55 AM 51.4 °F 43.7 °F 75% 29.91 in 10.0 mi Calm Calm - N/A   Mostly Cloudy
3:55 AM 49.5 °F 43.9 °F 81% 29.89 in 10.0 mi NNE 4.6 mph - N/A   Mostly Cloudy
4:55 AM 48.7 °F 43.9 °F 83% 29.89 in 10.0 mi NNE 4.6 mph - N/A   Mostly Cloudy
5:55 AM 48.0 °F 43.5 °F 84% 29.88 in 10.0 mi NNE 4.6 mph - N/A   Mostly Cloudy
6:55 AM 48.6 °F 43.0 °F 81% 29.89 in 10.0 mi NNE 3.5 mph - N/A   Mostly Cloudy
7:55 AM 48.0 °F 42.8 °F 82% 29.91 in 10.0 mi NE 3.5 mph - N/A   Mostly Cloudy
8:55 AM 49.6 °F 44.2 °F 82% 29.91 in 10.0 mi NNE 4.6 mph - N/A   Mostly Cloudy
9:55 AM 53.6 °F 45.9 °F 75% 29.90 in 10.0 mi NE 5.8 mph - N/A   Mostly Cloudy
10:55 AM 59.2 °F 45.5 °F 60% 29.90 in 10.0 mi East 6.9 mph - N/A   Mostly Cloudy
11:55 AM 61.3 °F 45.0 °F 55% 29.89 in 10.0 mi East 8.1 mph - N/A   Overcast
12:55 PM 62.2 °F 44.1 °F 51% 29.86 in 10.0 mi ENE 9.2 mph - N/A   Overcast
1:55 PM 63.7 °F 41.5 °F 44% 29.84 in 10.0 mi ENE 11.5 mph - N/A   Mostly Cloudy
2:55 PM 63.9 °F 42.1 °F 45% 29.83 in 10.0 mi ENE 9.2 mph - N/A   Overcast
3:55 PM 64.8 °F 42.6 °F 45% 29.81 in 10.0 mi ENE 11.5 mph - N/A   Overcast
4:55 PM 64.2 °F 43.5 °F 47% 29.80 in 10.0 mi East 10.4 mph - 0.00 in Rain Light Rain
5:42 PM 64.4 °F 44.6 °F 49% 29.78 in 10.0 mi ENE 13.8 mph - N/A   Overcast
5:55 PM 63.7 °F 43.9 °F 48% 29.78 in 10.0 mi ENE 10.4 mph - 0.00 in   Overcast
6:55 PM 62.4 °F 44.6 °F 52% 29.77 in 10.0 mi ENE 15.0 mph - 0.00 in Rain Light Rain
7:35 PM 59.0 °F 48.2 °F 67% 29.78 in 7.0 mi ENE 8.1 mph - N/A Rain Light Rain
7:55 PM 57.0 °F 50.2 °F 78% 29.76 in 7.0 mi NE 11.5 mph - 0.09 in Rain Light Rain
8:01 PM 57.2 °F 50.0 °F 77% 29.74 in 7.0 mi NE 12.7 mph - N/A Rain Light Rain
8:08 PM 55.4 °F 50.0 °F 82% 29.76 in 7.0 mi NNE 9.2 mph - N/A Rain Light Rain
8:55 PM 56.1 °F 51.3 °F 84% 29.77 in 10.0 mi NE 11.5 mph - 0.06 in Rain Light Rain
8:58 PM 55.4 °F 51.8 °F 88% 29.77 in 10.0 mi NE 10.4 mph - N/A   Overcast
9:02 PM 55.4 °F 51.8 °F 88% 29.76 in 10.0 mi NE 12.7 mph - N/A Rain Light Rain
9:23 PM 55.4 °F 51.8 °F 88% 29.76 in 6.0 mi NE 12.7 mph - N/A Rain Rain
9:26 PM 55.4 °F 51.8 °F 88% 29.75 in 7.0 mi NNE 11.5 mph - N/A Rain Rain
9:45 PM 55.4 °F 51.8 °F 88% 29.76 in 8.0 mi NNE 9.2 mph - N/A Rain Light Rain
9:52 PM 55.4 °F 51.8 °F 88% 29.78 in 4.0 mi North 8.1 mph - N/A Rain Heavy Rain
9:55 PM 55.2 °F 51.3 °F 87% 29.78 in 4.0 mi North 8.1 mph - 0.09 in Rain Heavy Rain
10:07 PM 55.4 °F 51.8 °F 88% 29.76 in 3.0 mi NNE 11.5 mph - N/A Rain Heavy Rain
10:19 PM 55.4 °F 51.8 °F 88% 29.77 in 5.0 mi NNE 9.2 mph - N/A Rain Heavy Rain
10:36 PM 55.4 °F 51.8 °F 88% 29.77 in 4.0 mi NNE 11.5 mph - N/A Rain Heavy Rain
10:50 PM 53.6 °F 51.8 °F 94% 29.76 in 4.0 mi NE 11.5 mph - N/A Rain Heavy Rain
10:55 PM 54.1 °F 50.5 °F 88% 29.76 in 5.0 mi NE 10.4 mph - 0.41 in Rain Rain
11:06 PM 53.6 °F 51.8 °F 94% 29.75 in 6.0 mi NE 11.5 mph - N/A Rain Rain
11:10 PM 53.6 °F 51.8 °F 94% 29.75 in 7.0 mi NE 11.5 mph - N/A Rain Light Rain
11:16 PM 53.6 °F 51.8 °F 94% 29.75 in 10.0 mi NE 12.7 mph - N/A Rain Light Rain
11:30 PM 53.6 °F 51.8 °F 94% 29.73 in 10.0 mi NE 11.5 mph - N/A   Overcast
11:56 PM 54.7 °F 52.0 °F 91% 29.73 in 10.0 mi NE 12.7 mph - 0.20 in Rain Light Rain